TimeCST,TemperatureF,Dew PointF,Humidity,Sea Level PressureIn,VisibilityMPH,Wind Direction,Wind SpeedMPH,Gust SpeedMPH,PrecipitationIn,Events,Conditions,WindDirDegrees,DateUTC
12:54 AM,28.9,25.0,85,30.27,10.0,Calm,Calm,-,N/A,,Clear,0,2011-12-08 06:54:00
1:54 AM,28.0,25.0,88,30.28,10.0,Calm,Calm,-,N/A,,Clear,0,2011-12-08 07:54:00
2:54 AM,28.0,26.1,92,30.28,9.0,Calm,Calm,-,N/A,,Clear,0,2011-12-08 08:54:00
3:54 AM,26.1,23.0,88,30.27,8.0,Calm,Calm,-,N/A,,Clear,0,2011-12-08 09:54:00
4:54 AM,26.1,24.1,92,30.28,7.0,Calm,Calm,-,N/A,,Clear,0,2011-12-08 10:54:00
5:54 AM,27.0,25.0,92,30.28,5.0,Calm,Calm,-,N/A,,Clear,0,2011-12-08 11:54:00
6:54 AM,26.1,24.1,92,30.31,4.0,Calm,Calm,-,N/A,,Clear,0,2011-12-08 12:54:00
7:54 AM,28.9,28.0,96,30.33,6.0,Calm,Calm,-,N/A,,Clear,0,2011-12-08 13:54:00
8:54 AM,35.1,30.9,85,30.34,8.0,South,5.8,-,N/A,,Clear,190,2011-12-08 14:54:00
9:54 AM,37.9,30.0,73,30.35,10.0,SSW,5.8,-,N/A,,Clear,200,2011-12-08 15:54:00
10:54 AM,39.9,28.0,63,30.35,10.0,SSW,11.5,-,N/A,,Clear,210,2011-12-08 16:54:00
11:54 AM,42.1,27.0,55,30.32,10.0,SW,13.8,-,N/A,,Clear,230,2011-12-08 17:54:00
12:54 PM,44.1,28.0,53,30.29,10.0,SSW,11.5,-,N/A,,Clear,200,2011-12-08 18:54:00
1:54 PM,43.0,26.1,51,30.27,10.0,South,10.4,-,N/A,,Clear,190,2011-12-08 19:54:00
2:54 PM,43.0,25.0,49,30.26,10.0,SSW,10.4,-,N/A,,Clear,210,2011-12-08 20:54:00
3:54 PM,43.0,26.1,51,30.25,10.0,SSW,5.8,-,N/A,,Clear,200,2011-12-08 21:54:00
4:54 PM,39.9,24.1,53,30.26,10.0,South,4.6,-,N/A,,Clear,170,2011-12-08 22:54:00
5:54 PM,37.9,25.0,60,30.26,10.0,South,3.5,-,N/A,,Clear,170,2011-12-08 23:54:00
6:54 PM,36.0,25.0,64,30.26,10.0,Calm,Calm,-,N/A,,Clear,0,2011-12-09 00:54:00
7:54 PM,35.1,25.0,67,30.26,10.0,Calm,Calm,-,N/A,,Clear,0,2011-12-09 01:54:00
8:54 PM,30.0,25.0,82,30.25,10.0,Calm,Calm,-,N/A,,Clear,0,2011-12-09 02:54:00
9:54 PM,30.0,26.1,85,30.26,10.0,Calm,Calm,-,N/A,,Clear,0,2011-12-09 03:54:00
10:54 PM,30.0,26.1,85,30.25,10.0,Calm,Calm,-,N/A,,Clear,0,2011-12-09 04:54:00
11:54 PM,28.9,24.1,82,30.25,10.0,Calm,Calm,-,N/A,,Clear,0,2011-12-09 05:54:00